Time,TemperatureF,DewpointF,PressureIn,WindDirection,WindDirectionDegrees,WindSpeedMPH,WindSpeedGustMPH,Humidity,HourlyPrecipIn,Conditions,Clouds,dailyrainin,SoftwareType,DateUTC
2013-07-04 00:04:00,55.9,55.0,30.13,ESE,113,0.0,0.0,96,0.00,,,0.00,weatherlink.com 1.10,2013-07-04 04:04:00,
2013-07-04 00:19:00,56.0,55.0,30.14,ESE,113,0.0,0.0,96,0.00,,,0.00,weatherlink.com 1.10,2013-07-04 04:19:00,
2013-07-04 00:34:00,56.2,55.0,30.14,ESE,109,0.0,0.0,96,0.00,,,0.00,weatherlink.com 1.10,2013-07-04 04:34:00,
2013-07-04 00:49:00,56.4,55.0,30.13,ESE,112,0.0,0.0,96,0.00,,,0.00,weatherlink.com 1.10,2013-07-04 04:49:00,
2013-07-04 01:04:00,56.6,56.0,30.13,East,82,0.0,0.0,97,0.00,,,0.00,weatherlink.com 1.10,2013-07-04 05:04:00,
2013-07-04 01:19:00,56.6,56.0,30.13,ESE,113,0.0,0.0,98,0.00,,,0.00,weatherlink.com 1.10,2013-07-04 05:19:00,
2013-07-04 01:34:00,56.5,56.0,30.13,ESE,111,0.0,0.0,98,0.00,,,0.00,weatherlink.com 1.10,2013-07-04 05:34:00,
2013-07-04 01:49:00,56.4,56.0,30.13,ESE,118,0.0,0.0,98,0.00,,,0.00,weatherlink.com 1.10,2013-07-04 05:49:00,
2013-07-04 02:04:00,56.1,56.0,30.12,ESE,109,0.0,0.0,98,0.00,,,0.00,weatherlink.com 1.10,2013-07-04 06:04:00,
2013-07-04 02:19:00,56.0,56.0,30.11,SE,128,0.0,0.0,98,0.00,,,0.00,weatherlink.com 1.10,2013-07-04 06:19:00,
2013-07-04 02:34:00,56.1,56.0,30.11,ESE,115,0.0,0.0,99,0.00,,,0.00,weatherlink.com 1.10,2013-07-04 06:34:00,
2013-07-04 02:49:00,56.6,56.0,30.11,ESE,115,0.0,0.0,99,0.00,,,0.00,weatherlink.com 1.10,2013-07-04 06:49:00,
2013-07-04 03:04:00,57.6,57.0,30.11,ESE,117,0.0,0.0,99,0.00,,,0.00,weatherlink.com 1.10,2013-07-04 07:04:00,
2013-07-04 03:19:00,57.9,58.0,30.11,SE,128,0.0,0.0,99,0.00,,,0.00,weatherlink.com 1.10,2013-07-04 07:19:00,
2013-07-04 03:34:00,58.1,58.0,30.11,South,186,0.0,0.0,99,0.00,,,0.00,weatherlink.com 1.10,2013-07-04 07:34:00,
2013-07-04 03:49:00,58.1,58.0,30.10,East,89,0.0,0.0,99,0.00,,,0.00,weatherlink.com 1.10,2013-07-04 07:49:00,
2013-07-04 04:04:00,58.2,58.0,30.10,ESE,105,0.0,0.0,99,0.00,,,0.00,weatherlink.com 1.10,2013-07-04 08:04:00,
2013-07-04 04:19:00,58.1,58.0,30.10,ENE,74,0.0,0.0,99,0.00,,,0.00,weatherlink.com 1.10,2013-07-04 08:19:00,
2013-07-04 04:34:00,58.3,58.0,30.10,NE,38,1.0,6.0,99,0.00,,,0.00,weatherlink.com 1.10,2013-07-04 08:34:00,
2013-07-04 04:49:00,58.4,58.0,30.10,ESE,115,1.0,14.0,99,0.00,,,0.00,weatherlink.com 1.10,2013-07-04 08:49:00,
2013-07-04 05:04:00,58.6,58.0,30.10,ESE,104,2.0,8.0,99,0.00,,,0.00,weatherlink.com 1.10,2013-07-04 09:04:00,
2013-07-04 05:19:00,58.8,59.0,30.11,ESE,102,0.0,6.0,99,0.00,,,0.00,weatherlink.com 1.10,2013-07-04 09:19:00,
2013-07-04 05:34:00,58.6,58.0,30.11,NE,36,0.0,2.0,99,0.00,,,0.00,weatherlink.com 1.10,2013-07-04 09:34:00,
2013-07-04 05:49:00,58.5,58.0,30.12,NE,36,0.0,0.0,99,0.00,,,0.00,weatherlink.com 1.10,2013-07-04 09:49:00,
2013-07-04 06:04:00,58.5,58.0,30.11,East,81,0.0,1.0,99,0.00,,,0.00,weatherlink.com 1.10,2013-07-04 10:04:00,
2013-07-04 06:19:00,58.6,58.0,30.11,ENE,71,0.0,2.0,99,0.00,,,0.00,weatherlink.com 1.10,2013-07-04 10:19:00,
2013-07-04 06:34:00,58.6,58.0,30.12,East,80,0.0,2.0,99,0.00,,,0.00,weatherlink.com 1.10,2013-07-04 10:34:00,
2013-07-04 06:49:00,58.8,59.0,30.12,NE,55,1.0,3.0,99,0.00,,,0.00,weatherlink.com 1.10,2013-07-04 10:49:00,
2013-07-04 07:04:00,58.9,59.0,30.13,ESE,119,2.0,2.0,99,0.00,,,0.00,weatherlink.com 1.10,2013-07-04 11:04:00,
2013-07-04 07:19:00,58.9,59.0,30.13,East,94,0.0,4.0,99,0.00,,,0.00,weatherlink.com 1.10,2013-07-04 11:19:00,
2013-07-04 07:34:00,59.0,59.0,30.13,East,100,1.0,3.0,99,0.00,,,0.00,weatherlink.com 1.10,2013-07-04 11:34:00,
2013-07-04 07:49:00,59.5,59.0,30.13,ENE,73,0.0,7.0,99,0.00,,,0.00,weatherlink.com 1.10,2013-07-04 11:49:00,
2013-07-04 08:04:00,59.3,59.0,30.13,ENE,69,1.0,3.0,99,0.00,,,0.00,weatherlink.com 1.10,2013-07-04 12:04:00,
2013-07-04 08:19:00,59.4,59.0,30.13,ENE,65,2.0,4.0,99,0.00,,,0.00,weatherlink.com 1.10,2013-07-04 12:19:00,
2013-07-04 08:34:00,59.8,60.0,30.13,East,82,2.0,7.0,99,0.00,,,0.00,weatherlink.com 1.10,2013-07-04 12:34:00,
2013-07-04 08:49:00,59.8,60.0,30.14,ENE,78,1.0,10.0,99,0.00,,,0.00,weatherlink.com 1.10,2013-07-04 12:49:00,
2013-07-04 09:04:00,59.7,60.0,30.14,NE,55,2.0,6.0,99,0.00,,,0.00,weatherlink.com 1.10,2013-07-04 13:04:00,
2013-07-04 09:19:00,59.5,59.0,30.15,East,90,1.0,6.0,99,0.00,,,0.00,weatherlink.com 1.10,2013-07-04 13:19:00,
2013-07-04 09:34:00,59.6,59.0,30.14,ESE,105,5.0,6.0,99,0.00,,,0.00,weatherlink.com 1.10,2013-07-04 13:34:00,
2013-07-04 09:49:00,59.8,60.0,30.13,SE,125,3.0,6.0,99,0.00,,,0.00,weatherlink.com 1.10,2013-07-04 13:49:00,
2013-07-04 10:04:00,59.7,60.0,30.13,East,92,0.0,10.0,99,0.00,,,0.00,weatherlink.com 1.10,2013-07-04 14:04:00,
2013-07-04 10:19:00,59.9,60.0,30.13,East,84,0.0,5.0,99,0.00,,,0.00,weatherlink.com 1.10,2013-07-04 14:19:00,
2013-07-04 10:35:00,59.9,60.0,30.14,East,88,1.0,6.0,99,0.00,,,0.00,weatherlink.com 1.10,2013-07-04 14:35:00,
2013-07-04 10:50:00,59.6,59.0,30.14,ENE,61,2.0,6.0,99,0.00,,,0.00,weatherlink.com 1.10,2013-07-04 14:50:00,
2013-07-04 11:05:00,59.6,59.0,30.14,East,99,1.0,6.0,99,0.00,,,0.00,weatherlink.com 1.10,2013-07-04 15:05:00,
2013-07-04 11:20:00,60.1,60.0,30.14,ENE,70,1.0,6.0,99,0.00,,,0.00,weatherlink.com 1.10,2013-07-04 15:20:00,
2013-07-04 11:35:00,60.4,60.0,30.14,NE,47,2.0,16.0,99,0.00,,,0.00,weatherlink.com 1.10,2013-07-04 15:35:00,
2013-07-04 11:50:00,60.4,60.0,30.14,NNE,32,2.0,7.0,99,0.00,,,0.00,weatherlink.com 1.10,2013-07-04 15:50:00,
2013-07-04 12:05:00,60.7,61.0,30.14,ENE,73,2.0,7.0,99,0.00,,,0.00,weatherlink.com 1.10,2013-07-04 16:05:00,
2013-07-04 12:20:00,61.1,61.0,30.14,East,83,0.0,5.0,99,0.00,,,0.00,weatherlink.com 1.10,2013-07-04 16:20:00,
2013-07-04 12:35:00,61.0,61.0,30.13,ENE,76,2.0,7.0,99,0.00,,,0.00,weatherlink.com 1.10,2013-07-04 16:35:00,
2013-07-04 12:50:00,61.3,61.0,30.13,East,92,2.0,8.0,99,0.00,,,0.00,weatherlink.com 1.10,2013-07-04 16:50:00,
2013-07-04 13:05:00,61.2,61.0,30.12,North,5,1.0,12.0,100,0.00,,,0.00,weatherlink.com 1.10,2013-07-04 17:05:00,
2013-07-04 13:20:00,61.1,61.0,30.11,East,101,1.0,9.0,99,0.00,,,0.00,weatherlink.com 1.10,2013-07-04 17:20:00,
2013-07-04 13:35:00,61.3,61.0,30.11,NE,40,2.0,14.0,99,0.00,,,0.00,weatherlink.com 1.10,2013-07-04 17:35:00,
2013-07-04 13:50:00,61.3,61.0,30.11,ENE,69,1.0,9.0,99,0.00,,,0.00,weatherlink.com 1.10,2013-07-04 17:50:00,
2013-07-04 14:05:00,61.6,61.0,30.11,ESE,105,3.0,12.0,99,0.00,,,0.00,weatherlink.com 1.10,2013-07-04 18:05:00,
2013-07-04 14:20:00,62.0,62.0,30.11,ENE,71,2.0,13.0,100,0.00,,,0.00,weatherlink.com 1.10,2013-07-04 18:20:00,
2013-07-04 14:35:00,62.2,62.0,30.11,ENE,60,3.0,6.0,99,0.00,,,0.00,weatherlink.com 1.10,2013-07-04 18:35:00,
2013-07-04 14:50:00,61.3,61.0,30.11,ESE,107,2.0,8.0,99,0.00,,,0.00,weatherlink.com 1.10,2013-07-04 18:50:00,
2013-07-04 15:05:00,61.2,61.0,30.11,East,99,1.0,8.0,99,0.00,,,0.00,weatherlink.com 1.10,2013-07-04 19:05:00,
2013-07-04 15:20:00,61.7,62.0,30.11,East,84,0.0,9.0,99,0.00,,,0.00,weatherlink.com 1.10,2013-07-04 19:20:00,
2013-07-04 15:35:00,61.2,61.0,30.11,ESE,123,0.0,7.0,99,0.00,,,0.00,weatherlink.com 1.10,2013-07-04 19:35:00,
2013-07-04 15:50:00,60.9,61.0,30.11,ENE,67,0.0,7.0,99,0.00,,,0.00,weatherlink.com 1.10,2013-07-04 19:50:00,
2013-07-04 16:05:00,61.0,61.0,30.10,East,91,2.0,7.0,99,0.00,,,0.00,weatherlink.com 1.10,2013-07-04 20:05:00,
2013-07-04 16:20:00,61.4,61.0,30.10,ENE,59,1.0,11.0,99,0.00,,,0.00,weatherlink.com 1.10,2013-07-04 20:20:00,
2013-07-04 16:35:00,61.7,62.0,30.10,East,94,0.0,7.0,99,0.00,,,0.00,weatherlink.com 1.10,2013-07-04 20:35:00,
2013-07-04 16:50:00,60.6,60.0,30.10,East,96,2.0,17.0,99,0.00,,,0.00,weatherlink.com 1.10,2013-07-04 20:50:00,
2013-07-04 17:05:00,60.6,60.0,30.09,East,94,0.0,8.0,99,0.00,,,0.00,weatherlink.com 1.10,2013-07-04 21:05:00,
2013-07-04 17:20:00,61.0,61.0,30.10,ESE,109,2.0,10.0,99,0.00,,,0.00,weatherlink.com 1.10,2013-07-04 21:20:00,
2013-07-04 17:35:00,61.2,61.0,30.09,NE,48,2.0,11.0,100,0.00,,,0.00,weatherlink.com 1.10,2013-07-04 21:35:00,
2013-07-04 17:50:00,61.4,61.0,30.10,NNE,24,1.0,10.0,99,0.00,,,0.00,weatherlink.com 1.10,2013-07-04 21:50:00,
2013-07-04 18:05:00,61.3,61.0,30.11,SE,127,3.0,10.0,100,0.00,,,0.00,weatherlink.com 1.10,2013-07-04 22:05:00,
2013-07-04 18:11:00,-999.0,-99.9,0.00,North,-999,-999.0,-999.0,-999,0.00,,,0.00,weatherlink.com 1.10,2013-07-04 22:11:00,
2013-07-04 18:24:00,-999.0,-99.9,30.13,North,-999,-999.0,-999.0,-999,0.00,,,0.00,weatherlink.com 1.10,2013-07-04 22:24:00,
2013-07-04 18:39:00,59.6,59.0,30.11,East,98,2.0,8.0,99,0.00,,,0.00,weatherlink.com 1.10,2013-07-04 22:39:00,
2013-07-04 18:54:00,60.2,60.0,30.11,ESE,105,13.0,13.0,99,0.00,,,0.00,weatherlink.com 1.10,2013-07-04 22:54:00,
2013-07-04 19:09:00,60.6,61.0,30.10,East,96,6.0,11.0,100,0.00,,,0.00,weatherlink.com 1.10,2013-07-04 23:09:00,
2013-07-04 19:24:00,60.7,61.0,30.10,East,88,2.0,11.0,100,0.00,,,0.00,weatherlink.com 1.10,2013-07-04 23:24:00,
2013-07-04 19:39:00,60.5,60.0,30.09,ESE,120,3.0,11.0,99,0.00,,,0.00,weatherlink.com 1.10,2013-07-04 23:39:00,
2013-07-04 19:54:00,60.5,60.0,30.09,East,88,5.0,16.0,99,0.00,,,0.00,weatherlink.com 1.10,2013-07-04 23:54:00,
2013-07-04 20:09:00,60.5,60.0,30.11,East,96,3.0,14.0,99,0.00,,,0.00,weatherlink.com 1.10,2013-07-05 00:09:00,
2013-07-04 20:24:00,60.3,60.0,30.10,ESE,103,5.0,7.0,99,0.00,,,0.00,weatherlink.com 1.10,2013-07-05 00:24:00,
2013-07-04 20:39:00,60.1,60.0,30.11,NE,44,0.0,7.0,100,0.00,,,0.00,weatherlink.com 1.10,2013-07-05 00:39:00,
2013-07-04 20:54:00,57.8,58.0,30.11,ENE,72,2.0,8.0,99,0.00,,,0.00,weatherlink.com 1.10,2013-07-05 00:54:00,
2013-07-04 21:09:00,58.0,58.0,30.12,East,92,0.0,6.0,99,0.00,,,0.00,weatherlink.com 1.10,2013-07-05 01:09:00,
2013-07-04 21:24:00,58.2,58.0,30.12,East,94,2.0,6.0,99,0.00,,,0.00,weatherlink.com 1.10,2013-07-05 01:24:00,
2013-07-04 21:39:00,58.0,58.0,30.11,East,79,1.0,14.0,99,0.00,,,0.00,weatherlink.com 1.10,2013-07-05 01:39:00,
2013-07-04 21:54:00,57.9,58.0,30.10,East,89,1.0,6.0,99,0.00,,,0.00,weatherlink.com 1.10,2013-07-05 01:54:00,
2013-07-04 22:09:00,58.3,58.0,30.11,SE,135,2.0,9.0,100,0.00,,,0.00,weatherlink.com 1.10,2013-07-05 02:09:00,
2013-07-04 22:24:00,58.7,59.0,30.11,ESE,111,3.0,10.0,99,0.00,,,0.00,weatherlink.com 1.10,2013-07-05 02:24:00,
2013-07-04 22:39:00,59.2,59.0,30.11,East,92,5.0,11.0,99,0.00,,,0.00,weatherlink.com 1.10,2013-07-05 02:39:00,
2013-07-04 22:54:00,59.3,59.0,30.12,East,84,2.0,9.0,99,0.00,,,0.00,weatherlink.com 1.10,2013-07-05 02:54:00,
2013-07-04 23:09:00,58.8,59.0,30.12,ENE,63,0.0,11.0,100,0.00,,,0.00,weatherlink.com 1.10,2013-07-05 03:09:00,
2013-07-04 23:24:00,58.6,58.0,30.11,ENE,65,2.0,6.0,99,0.00,,,0.00,weatherlink.com 1.10,2013-07-05 03:24:00,
2013-07-04 23:39:00,58.6,58.0,30.11,NE,51,2.0,13.0,99,0.00,,,0.00,weatherlink.com 1.10,2013-07-05 03:39:00,
2013-07-04 23:54:00,58.7,59.0,30.11,ENE,67,2.0,11.0,99,0.00,,,0.00,weatherlink.com 1.10,2013-07-05 03:54:00,